Location: Erlenbrunn
(49.1717°N, 7.6142°E)
Time: 09:00:57
(UTC+00:00)

Envisat - Pass Details

Date: 25 November 2020
Orbit: 764 x 766 km, 98.1° (Epoch: 26 January)

Event Time Altitude Azimuth Distance (km) Brightness Sun altitude
Rises 16:58:27 0° 183° (S) 3,219 6.5 -12.8°
Reaches altitude 10° 17:00:50 10° 190° (S) 2,298 5.8 -13.2°
Maximum altitude 17:05:40 44° 262° (W) 1,050 4.3 -13.9°
Drops below altitude 10° 17:10:33 10° 335° (NNW) 2,316 5.6 -14.7°
Sets 17:12:59 0° 342° (NNW) 3,247 6.3 -15.1°
